Time,TemperatureF,DewpointF,PressureIn,WindDirection,WindDirectionDegrees,WindSpeedMPH,WindSpeedGustMPH,Humidity,HourlyPrecipIn,Conditions,Clouds,dailyrainin,SoftwareType,DateUTC
2013-01-05 00:00:00,10.3,9.0,30.14,SE,144,0.0,0.0,92,0.00,,,0.00,weatherlink.com 1.10,2013-01-05 06:00:00,
2013-01-05 00:15:00,9.6,7.0,30.14,SE,144,0.0,0.0,90,0.00,,,0.00,weatherlink.com 1.10,2013-01-05 06:15:00,
2013-01-05 00:30:00,8.0,6.0,30.14,SE,143,0.0,0.0,89,0.00,,,0.00,weatherlink.com 1.10,2013-01-05 06:30:00,
2013-01-05 00:45:00,7.8,6.0,30.14,SE,144,0.0,0.0,90,0.00,,,0.00,weatherlink.com 1.10,2013-01-05 06:45:00,
2013-01-05 01:00:00,7.8,6.0,30.14,SE,143,0.0,0.0,91,0.00,,,0.00,weatherlink.com 1.10,2013-01-05 07:00:00,
2013-01-05 01:15:00,7.4,5.0,30.14,SE,144,0.0,0.0,90,0.00,,,0.00,weatherlink.com 1.10,2013-01-05 07:15:00,
2013-01-05 01:30:00,6.8,5.0,30.14,SE,144,0.0,0.0,90,0.00,,,0.00,weatherlink.com 1.10,2013-01-05 07:30:00,
2013-01-05 01:45:00,6.4,4.0,30.13,SE,143,0.0,0.0,91,0.00,,,0.00,weatherlink.com 1.10,2013-01-05 07:45:00,
2013-01-05 02:00:00,6.9,5.0,30.13,SE,143,0.0,0.0,91,0.00,,,0.00,weatherlink.com 1.10,2013-01-05 08:00:00,
2013-01-05 02:15:00,7.3,5.0,30.14,SE,144,0.0,0.0,91,0.00,,,0.00,weatherlink.com 1.10,2013-01-05 08:15:00,
2013-01-05 02:30:00,7.5,6.0,30.14,SE,143,0.0,0.0,91,0.00,,,0.00,weatherlink.com 1.10,2013-01-05 08:30:00,
2013-01-05 02:45:00,7.8,6.0,30.13,SE,143,0.0,0.0,91,0.00,,,0.00,weatherlink.com 1.10,2013-01-05 08:45:00,
2013-01-05 03:00:00,8.1,6.0,30.13,SE,143,0.0,0.0,91,0.00,,,0.00,weatherlink.com 1.10,2013-01-05 09:00:00,
2013-01-05 03:15:00,8.1,6.0,30.12,SE,144,0.0,0.0,91,0.00,,,0.00,weatherlink.com 1.10,2013-01-05 09:15:00,
2013-01-05 03:30:00,8.3,6.0,30.12,SE,143,0.0,0.0,91,0.00,,,0.00,weatherlink.com 1.10,2013-01-05 09:30:00,
2013-01-05 03:45:00,8.3,6.0,30.12,SE,144,0.0,0.0,90,0.00,,,0.00,weatherlink.com 1.10,2013-01-05 09:45:00,
2013-01-05 04:00:00,8.1,6.0,30.11,SE,143,0.0,0.0,90,0.00,,,0.00,weatherlink.com 1.10,2013-01-05 10:00:00,
2013-01-05 04:15:00,8.1,6.0,30.11,SE,144,0.0,0.0,91,0.00,,,0.00,weatherlink.com 1.10,2013-01-05 10:15:00,
2013-01-05 04:30:00,8.5,6.0,30.10,SE,143,0.0,0.0,91,0.00,,,0.00,weatherlink.com 1.10,2013-01-05 10:30:00,
2013-01-05 04:45:00,8.0,6.0,30.09,SE,143,0.0,0.0,90,0.00,,,0.00,weatherlink.com 1.10,2013-01-05 10:45:00,
2013-01-05 05:00:00,8.1,6.0,30.09,SE,144,0.0,0.0,91,0.00,,,0.00,weatherlink.com 1.10,2013-01-05 11:00:00,
2013-01-05 05:16:00,9.8,8.0,30.08,ENE,58,1.0,1.0,93,0.00,,,0.00,weatherlink.com 1.10,2013-01-05 11:16:00,
2013-01-05 05:31:00,11.0,9.0,30.07,ENE,70,0.0,0.0,92,0.00,,,0.00,weatherlink.com 1.10,2013-01-05 11:31:00,
2013-01-05 05:46:00,11.5,10.0,30.07,NNW,345,0.0,2.0,92,0.00,,,0.00,weatherlink.com 1.10,2013-01-05 11:46:00,
2013-01-05 06:16:00,12.8,11.0,30.05,ENE,71,0.0,1.0,92,0.00,,,0.00,weatherlink.com 1.10,2013-01-05 12:16:00,
2013-01-05 06:31:00,12.7,11.0,30.05,ENE,71,0.0,1.0,92,0.00,,,0.00,weatherlink.com 1.10,2013-01-05 12:31:00,
2013-01-05 06:46:00,12.5,11.0,30.05,ENE,71,0.0,1.0,92,0.00,,,0.00,weatherlink.com 1.10,2013-01-05 12:46:00,
2013-01-05 07:01:00,12.6,11.0,30.05,ENE,77,0.0,0.0,92,0.00,,,0.00,weatherlink.com 1.10,2013-01-05 13:01:00,
2013-01-05 07:16:00,13.1,11.0,30.04,ENE,68,0.0,1.0,92,0.00,,,0.00,weatherlink.com 1.10,2013-01-05 13:16:00,
2013-01-05 07:31:00,13.8,12.0,30.04,NE,53,0.0,1.0,93,0.00,,,0.00,weatherlink.com 1.10,2013-01-05 13:31:00,
2013-01-05 07:46:00,14.5,13.0,30.03,SE,146,0.0,0.0,93,0.00,,,0.00,weatherlink.com 1.10,2013-01-05 13:46:00,
2013-01-05 08:01:00,15.4,14.0,30.03,East,83,1.0,2.0,93,0.00,,,0.00,weatherlink.com 1.10,2013-01-05 14:01:00,
2013-01-05 08:16:00,16.1,15.0,30.03,NNE,18,2.0,2.0,93,0.00,,,0.00,weatherlink.com 1.10,2013-01-05 14:16:00,
2013-01-05 08:31:00,16.2,15.0,30.04,ENE,58,0.0,1.0,93,0.00,,,0.00,weatherlink.com 1.10,2013-01-05 14:31:00,
2013-01-05 08:46:00,16.6,15.0,30.04,ENE,58,0.0,1.0,93,0.00,,,0.00,weatherlink.com 1.10,2013-01-05 14:46:00,
2013-01-05 09:01:00,17.2,16.0,30.04,NE,48,1.0,1.0,93,0.00,,,0.00,weatherlink.com 1.10,2013-01-05 15:01:00,
2013-01-05 09:16:00,18.0,16.0,30.04,ENE,60,0.0,2.0,93,0.00,,,0.00,weatherlink.com 1.10,2013-01-05 15:16:00,
2013-01-05 09:31:00,18.7,17.0,30.04,ENE,69,1.0,2.0,93,0.00,,,0.00,weatherlink.com 1.10,2013-01-05 15:31:00,
2013-01-05 09:46:00,19.2,18.0,30.04,NE,56,1.0,2.0,93,0.00,,,0.00,weatherlink.com 1.10,2013-01-05 15:46:00,
2013-01-05 10:01:00,19.4,18.0,30.03,NNE,19,3.0,3.0,93,0.00,,,0.00,weatherlink.com 1.10,2013-01-05 16:01:00,
2013-01-05 10:16:00,19.9,18.0,30.02,NNE,23,0.0,3.0,93,0.00,,,0.00,weatherlink.com 1.10,2013-01-05 16:16:00,
2013-01-05 10:31:00,20.6,19.0,30.02,NE,39,2.0,3.0,93,0.00,,,0.00,weatherlink.com 1.10,2013-01-05 16:31:00,
2013-01-05 11:01:00,22.2,21.0,30.01,East,101,0.0,3.0,93,0.00,,,0.00,weatherlink.com 1.10,2013-01-05 17:01:00,
2013-01-05 11:16:00,22.5,21.0,30.00,SSE,149,0.0,2.0,93,0.00,,,0.00,weatherlink.com 1.10,2013-01-05 17:16:00,
2013-01-05 11:32:00,23.0,22.0,29.99,ENE,57,1.0,2.0,94,0.00,,,0.00,weatherlink.com 1.10,2013-01-05 17:32:00,
2013-01-05 11:47:00,23.3,22.0,29.98,East,86,1.0,3.0,93,0.00,,,0.00,weatherlink.com 1.10,2013-01-05 17:47:00,
2013-01-05 12:02:00,23.3,22.0,29.98,NNE,32,0.0,5.0,93,0.00,,,0.00,weatherlink.com 1.10,2013-01-05 18:02:00,
2013-01-05 12:17:00,23.5,22.0,29.97,NNE,30,0.0,4.0,92,0.00,,,0.00,weatherlink.com 1.10,2013-01-05 18:17:00,
2013-01-05 12:32:00,23.8,22.0,29.95,NE,46,2.0,4.0,92,0.00,,,0.00,weatherlink.com 1.10,2013-01-05 18:32:00,
2013-01-05 12:47:00,23.9,22.0,29.95,ENE,65,1.0,5.0,91,0.00,,,0.00,weatherlink.com 1.10,2013-01-05 18:47:00,
2013-01-05 13:02:00,24.2,22.0,29.94,ENE,75,0.0,4.0,91,0.00,,,0.00,weatherlink.com 1.10,2013-01-05 19:02:00,
2013-01-05 13:17:00,24.4,22.0,29.93,NNE,16,3.0,4.0,90,0.00,,,0.00,weatherlink.com 1.10,2013-01-05 19:17:00,
2013-01-05 13:32:00,24.6,22.0,29.93,NW,318,0.0,1.0,90,0.00,,,0.00,weatherlink.com 1.10,2013-01-05 19:32:00,
2013-01-05 13:47:00,24.6,22.0,29.93,South,181,1.0,1.0,89,0.00,,,0.00,weatherlink.com 1.10,2013-01-05 19:47:00,
2013-01-05 14:02:00,24.6,22.0,29.93,South,177,0.0,2.0,89,0.00,,,0.00,weatherlink.com 1.10,2013-01-05 20:02:00,
2013-01-05 14:17:00,24.6,22.0,29.93,SE,136,1.0,2.0,89,0.00,,,0.00,weatherlink.com 1.10,2013-01-05 20:17:00,
2013-01-05 14:32:00,24.5,22.0,29.93,SSE,153,0.0,2.0,89,0.00,,,0.00,weatherlink.com 1.10,2013-01-05 20:32:00,
2013-01-05 14:47:00,24.0,21.0,29.93,SE,146,0.0,4.0,89,0.00,,,0.00,weatherlink.com 1.10,2013-01-05 20:47:00,
2013-01-05 15:02:00,24.0,22.0,29.93,SE,138,0.0,4.0,90,0.00,,,0.00,weatherlink.com 1.10,2013-01-05 21:02:00,
2013-01-05 15:17:00,23.9,21.0,29.93,SE,132,1.0,3.0,90,0.00,,,0.00,weatherlink.com 1.10,2013-01-05 21:17:00,
2013-01-05 15:32:00,23.7,21.0,29.93,SSE,165,0.0,4.0,89,0.00,,,0.00,weatherlink.com 1.10,2013-01-05 21:32:00,
2013-01-05 15:47:00,23.3,21.0,29.94,SSE,148,0.0,4.0,90,0.00,,,0.00,weatherlink.com 1.10,2013-01-05 21:47:00,
2013-01-05 16:02:00,22.8,20.0,29.94,SW,217,2.0,3.0,90,0.00,,,0.00,weatherlink.com 1.10,2013-01-05 22:02:00,
2013-01-05 16:17:00,22.4,20.0,29.95,SE,145,0.0,1.0,90,0.00,,,0.00,weatherlink.com 1.10,2013-01-05 22:17:00,
2013-01-05 16:32:00,21.7,19.0,29.95,South,186,1.0,3.0,90,0.00,,,0.00,weatherlink.com 1.10,2013-01-05 22:32:00,
2013-01-05 16:47:00,21.5,19.0,29.95,SE,139,0.0,3.0,91,0.00,,,0.00,weatherlink.com 1.10,2013-01-05 22:47:00,
2013-01-05 17:02:00,21.2,19.0,29.96,SSE,158,0.0,3.0,91,0.00,,,0.00,weatherlink.com 1.10,2013-01-05 23:02:00,
2013-01-05 17:17:00,20.6,18.0,29.97,SE,129,1.0,4.0,91,0.00,,,0.00,weatherlink.com 1.10,2013-01-05 23:17:00,
2013-01-05 17:32:00,20.1,18.0,29.98,SSW,193,0.0,4.0,92,0.00,,,0.00,weatherlink.com 1.10,2013-01-05 23:32:00,
2013-01-05 17:47:00,19.9,18.0,29.98,ESE,113,0.0,4.0,92,0.00,,,0.00,weatherlink.com 1.10,2013-01-05 23:47:00,
2013-01-05 18:02:00,19.3,17.0,29.97,SE,134,0.0,2.0,92,0.00,,,0.00,weatherlink.com 1.10,2013-01-06 00:02:00,
2013-01-05 18:32:00,18.4,17.0,29.98,SSE,164,0.0,3.0,92,0.00,,,0.00,weatherlink.com 1.10,2013-01-06 00:32:00,
2013-01-05 18:47:00,18.1,16.0,29.99,SSE,153,0.0,2.0,93,0.00,,,0.00,weatherlink.com 1.10,2013-01-06 00:47:00,
2013-01-05 19:02:00,17.5,16.0,29.99,SE,142,0.0,2.0,92,0.00,,,0.00,weatherlink.com 1.10,2013-01-06 01:02:00,
2013-01-05 19:17:00,16.9,15.0,29.99,SE,138,1.0,2.0,93,0.00,,,0.00,weatherlink.com 1.10,2013-01-06 01:17:00,
2013-01-05 19:32:00,16.6,15.0,30.00,SE,138,1.0,4.0,93,0.00,,,0.00,weatherlink.com 1.10,2013-01-06 01:32:00,
2013-01-05 19:47:00,16.5,15.0,30.01,SE,145,1.0,3.0,93,0.00,,,0.00,weatherlink.com 1.10,2013-01-06 01:47:00,
2013-01-05 20:02:00,16.4,15.0,30.00,SSE,156,0.0,3.0,93,0.00,,,0.00,weatherlink.com 1.10,2013-01-06 02:02:00,
2013-01-05 20:17:00,16.5,15.0,30.00,SE,139,0.0,1.0,93,0.00,,,0.00,weatherlink.com 1.10,2013-01-06 02:17:00,
2013-01-05 20:32:00,16.6,15.0,29.99,SSE,148,0.0,1.0,93,0.00,,,0.00,weatherlink.com 1.10,2013-01-06 02:32:00,
2013-01-05 20:47:00,16.7,15.0,30.01,SE,134,3.0,4.0,93,0.00,,,0.00,weatherlink.com 1.10,2013-01-06 02:47:00,
2013-01-05 21:02:00,16.7,15.0,30.02,SE,126,0.0,2.0,93,0.00,,,0.00,weatherlink.com 1.10,2013-01-06 03:02:00,
2013-01-05 21:17:00,16.6,15.0,30.01,SSE,153,1.0,3.0,93,0.00,,,0.00,weatherlink.com 1.10,2013-01-06 03:17:00,
2013-01-05 21:32:00,16.6,15.0,30.02,SSE,154,0.0,4.0,93,0.00,,,0.00,weatherlink.com 1.10,2013-01-06 03:32:00,
2013-01-05 21:47:00,16.6,15.0,30.02,SE,127,0.0,4.0,93,0.00,,,0.00,weatherlink.com 1.10,2013-01-06 03:47:00,
2013-01-05 22:02:00,16.7,15.0,30.02,SE,139,1.0,2.0,93,0.00,,,0.00,weatherlink.com 1.10,2013-01-06 04:02:00,
2013-01-05 22:17:00,16.8,15.0,30.02,SE,130,1.0,2.0,93,0.00,,,0.00,weatherlink.com 1.10,2013-01-06 04:17:00,
2013-01-05 22:32:00,16.8,15.0,30.02,SE,127,0.0,2.0,93,0.00,,,0.00,weatherlink.com 1.10,2013-01-06 04:32:00,
2013-01-05 22:47:00,16.8,15.0,30.02,ESE,122,0.0,4.0,93,0.00,,,0.00,weatherlink.com 1.10,2013-01-06 04:47:00,
2013-01-05 23:02:00,16.8,15.0,30.02,SE,139,0.0,2.0,93,0.00,,,0.00,weatherlink.com 1.10,2013-01-06 05:02:00,
2013-01-05 23:17:00,16.8,15.0,30.03,SE,128,1.0,2.0,92,0.00,,,0.00,weatherlink.com 1.10,2013-01-06 05:17:00,
2013-01-05 23:32:00,16.9,15.0,30.03,SSE,153,0.0,4.0,93,0.00,,,0.00,weatherlink.com 1.10,2013-01-06 05:32:00,
2013-01-05 23:47:00,16.9,15.0,30.03,SE,141,0.0,3.0,92,0.00,,,0.00,weatherlink.com 1.10,2013-01-06 05:47:00,